Find Local Weather

World > North America > United States > Connecticut

North Haven, Connecticut Regional Weather

Lat: 41.38N, Lon: 72.86W
Wx Zone: CTZ006
Warning FLW WEATHER ALERT - (More Info. Click Here) Warning
Feedback
Expires:201806181600;;730375
ASUS41 KOKX 181506
RWROKX

Regional Weather Roundup
National Weather Service New York NY
1100 AM EDT MON JUN 18 2018

Note: "FAIR" indicates few or no clouds below 12,000 feet with no
significant weather and/or obstructions to visibility.


CTZ002-004>006-009-010-012-RIZ004-006-007-MAZ004-011-015-181600-
Southern New England

 In CT
  
CITY           SKY/WX    TMP DP  RH WIND       PRES   REMARKS
Bradley Intl   PTSUNNY   85  67  54 SW12      29.92F                  
Hartford       FAIR      82  68  62 SW10      29.93F                  
Danbury        SUNNY     84  68  58 SW13      29.98F                  
Wtrbury/Oxford SUNNY     82  70  65 S9        29.99F                  
Norwalk Harbor   N/A     73 N/A N/A SW13        N/A                   
Bridgeport     FAIR      79  67  66 SW9       29.97F                  
Meriden        FAIR      83  68  60 SW9       29.96F                  
New Haven      FAIR      78  68  71 SW9       29.98F                  
Chester        FAIR      81  68  65 SW12G22   29.99F                  
Groton         FAIR      75  67  76 SW9       29.98F                  
Willimantic    FAIR      82  68  62 SW9       29.95F                  

 In RI
  
CITY           SKY/WX    TMP DP  RH WIND       PRES   REMARKS
Providence     PTSUNNY   83  66  56 SW17      29.96F                  
Block Island   FAIR      71  65  81 SW17G26   30.00F                  
Westerly       FAIR      75  66  73 SW8       30.00F                  
 
In MA
  
CITY           SKY/WX    TMP DP  RH WIND       PRES   REMARKS
Boston         CLOUDY    83  66  56 SW16      29.89F                  
Worcester      FAIR      82  67  60 SW16      29.94F                  
Westfield      FAIR      83  68  60 S10       29.91F                  
Provincetown   FAIR      73  65  75 SW20G29   29.95F                  
Nantucket      FAIR      66  61  84 SW10      30.02F                  
$$


SKY/WX - Weather  TMP - Temperature  DP - Dewpoint  RH - Relative Humidity
WIND - Wind Direction/Speed PRES - Barometric Pressure